This demonstration page uses our WeatherBlox Daily Observations layout. Learn more.

Left ArrowRight Arrow

34.74481, -87.66753

Hourly Observations for December 29, 2017

Temp ( °F °C ) Dew Point ( °F °C ) Humidity (%) Winds ( mph kmh ) Pressure ( in mb ) Visibility ( mi km ) Precip ( " mm )
12:53 am 00:53 Clear 27 -2.8 16 -8.9 63 63 N 3 6 30.42 1030 10 16 0.00 0.00
1:53 am 01:53 Clear 27 -2.8 16 -8.9 63 63 N 3 6 30.44 1031 10 16 0.00 0.00
2:53 am 02:53 Clear 24 -4.4 16 -8.9 71 71 NNW 5 7 30.45 1031 10 16 0.00 0.00
3:53 am 03:53 Clear 25 -3.9 16 -8.9 69 69 Calm 30.43 1031 10 16 0.00 0.00
4:53 am 04:53 Clear 24 -4.4 16 -8.9 71 71 Calm 30.42 1030 10 16 0.00 0.00
5:53 am 05:53 Clear 23 -5 15 -9.4 72 72 Calm 30.44 1031 10 16 0.00 0.00
6:53 am 06:53 Clear 22 -5.6 15 -9.4 75 75 Calm 30.45 1031 10 16 0.00 0.00
7:53 am 07:53 Sunny 27 -2.8 15 -9.4 61 61 ENE 5 7 30.45 1031 10 16 0.00 0.00
8:53 am 08:53 Sunny 29 -1.7 14 -10 54 54 ENE 5 7 30.45 1031 10 16 0.00 0.00
9:53 am 09:53 Sunny 33 0.6 13 -10.6 43 43 E 6 9 30.44 1031 10 16 0.00 0.00
10:53 am 10:53 Sunny 36 2.2 13 -10.6 39 39 VRB 3 6 30.41 1030 10 16 0.00 0.00
11:53 am 11:53 Sunny 40 4.4 16 -8.9 38 38 NE 6 9 30.37 1028 10 16 0.00 0.00
12:53 pm 12:53 Sunny 42 5.6 17 -8.3 36 36 Calm 30.32 1027 10 16 0.00 0.00
1:53 pm 13:53 Sunny 44 6.7 19 -7.2 37 37 N 3 6 30.30 1026 10 16 0.00 0.00
2:53 pm 14:53 Sunny 44 6.7 20 -6.7 38 38 Calm 30.29 1026 10 16 0.00 0.00
3:53 pm 15:53 Sunny 44 6.7 19 -7.2 37 37 Calm 30.27 1025 10 16 0.00 0.00
4:53 pm 16:53 Clear 40 4.4 21 -6.1 47 47 Calm 30.26 1025 10 16 0.00 0.00
5:53 pm 17:53 Clear 36 2.2 22 -5.6 57 57 Calm 30.24 1024 10 16 0.00 0.00
6:53 pm 18:53 Clear 34 1.1 23 -5 64 64 Calm 30.24 1024 10 16 0.00 0.00
7:53 pm 19:53 Clear 32 0 24 -4.4 73 73 Calm 30.26 1025 10 16 0.00 0.00
8:53 pm 20:53 Clear 31 -0.6 22 -5.6 69 69 Calm 30.27 1025 10 16 0.00 0.00
9:53 pm 21:53 Clear 30 -1.1 22 -5.6 72 72 WNW 3 6 30.27 1025 10 16 0.00 0.00
10:53 pm 22:53 Clear 28 -2.2 23 -5 81 81 SSE 3 6 30.26 1025 10 16 0.00 0.00
11:53 pm 23:53 Clear 27 -2.8 23 -5 85 85 Calm 30.24 1024 10 16 0.00 0.00

Powered by AerisWeather